Index of /20260412/WXO-DD/model_gdps/15km/12/156
Name Last modified Size Description
Parent Directory -
20260412T12Z_MSC_GDPS_AbsoluteVorticity_IsbL-0200_LatLon0.15_PT156H.grib2 2026-04-12 16:54 1.5M
20260412T12Z_MSC_GDPS_AbsoluteVorticity_IsbL-0250_LatLon0.15_PT156H.grib2 2026-04-12 16:54 1.3M
20260412T12Z_MSC_GDPS_AbsoluteVorticity_IsbL-0500_LatLon0.15_PT156H.grib2 2026-04-12 16:54 1.4M
20260412T12Z_MSC_GDPS_AbsoluteVorticity_IsbL-0700_LatLon0.15_PT156H.grib2 2026-04-12 16:54 1.6M
20260412T12Z_MSC_GDPS_AbsoluteVorticity_IsbL-0850_LatLon0.15_PT156H.grib2 2026-04-12 16:54 1.6M
20260412T12Z_MSC_GDPS_AirTemp-Max_AGL-2m_LatLon0.15_PT156H.grib2 2026-04-12 16:54 757K
20260412T12Z_MSC_GDPS_AirTemp-Min_AGL-2m_LatLon0.15_PT156H.grib2 2026-04-12 16:54 803K
20260412T12Z_MSC_GDPS_AirTemp_AGL-120m_LatLon0.15_PT156H.grib2 2026-04-12 16:54 918K
20260412T12Z_MSC_GDPS_AirTemp_AGL-2m_LatLon0.15_PT156H.grib2 2026-04-12 16:54 1.0M
20260412T12Z_MSC_GDPS_AirTemp_AGL-40m_LatLon0.15_PT156H.grib2 2026-04-12 16:54 940K
20260412T12Z_MSC_GDPS_AirTemp_AGL-80m_LatLon0.15_PT156H.grib2 2026-04-12 16:54 928K
20260412T12Z_MSC_GDPS_AirTemp_IsbL-0001_LatLon0.15_PT156H.grib2 2026-04-12 16:54 698K
20260412T12Z_MSC_GDPS_AirTemp_IsbL-0005_LatLon0.15_PT156H.grib2 2026-04-12 16:54 736K
20260412T12Z_MSC_GDPS_AirTemp_IsbL-0010_LatLon0.15_PT156H.grib2 2026-04-12 16:54 746K
20260412T12Z_MSC_GDPS_AirTemp_IsbL-0020_LatLon0.15_PT156H.grib2 2026-04-12 16:54 688K
20260412T12Z_MSC_GDPS_AirTemp_IsbL-0030_LatLon0.15_PT156H.grib2 2026-04-12 16:54 742K
20260412T12Z_MSC_GDPS_AirTemp_IsbL-0050_LatLon0.15_PT156H.grib2 2026-04-12 16:54 806K
20260412T12Z_MSC_GDPS_AirTemp_IsbL-0100_LatLon0.15_PT156H.grib2 2026-04-12 16:54 947K
20260412T12Z_MSC_GDPS_AirTemp_IsbL-0150_LatLon0.15_PT156H.grib2 2026-04-12 16:54 956K
20260412T12Z_MSC_GDPS_AirTemp_IsbL-0175_LatLon0.15_PT156H.grib2 2026-04-12 16:54 951K
20260412T12Z_MSC_GDPS_AirTemp_IsbL-0200_LatLon0.15_PT156H.grib2 2026-04-12 16:54 961K
20260412T12Z_MSC_GDPS_AirTemp_IsbL-0225_LatLon0.15_PT156H.grib2 2026-04-12 16:54 965K
20260412T12Z_MSC_GDPS_AirTemp_IsbL-0250_LatLon0.15_PT156H.grib2 2026-04-12 16:54 1.0M
20260412T12Z_MSC_GDPS_AirTemp_IsbL-0275_LatLon0.15_PT156H.grib2 2026-04-12 16:54 1.0M
20260412T12Z_MSC_GDPS_AirTemp_IsbL-0300_LatLon0.15_PT156H.grib2 2026-04-12 16:54 1.0M
20260412T12Z_MSC_GDPS_AirTemp_IsbL-0350_LatLon0.15_PT156H.grib2 2026-04-12 16:54 916K
20260412T12Z_MSC_GDPS_AirTemp_IsbL-0400_LatLon0.15_PT156H.grib2 2026-04-12 16:54 927K
20260412T12Z_MSC_GDPS_AirTemp_IsbL-0450_LatLon0.15_PT156H.grib2 2026-04-12 16:54 948K
20260412T12Z_MSC_GDPS_AirTemp_IsbL-0500_LatLon0.15_PT156H.grib2 2026-04-12 16:54 1.0M
20260412T12Z_MSC_GDPS_AirTemp_IsbL-0550_LatLon0.15_PT156H.grib2 2026-04-12 16:54 1.0M
20260412T12Z_MSC_GDPS_AirTemp_IsbL-0600_LatLon0.15_PT156H.grib2 2026-04-12 16:54 885K
20260412T12Z_MSC_GDPS_AirTemp_IsbL-0650_LatLon0.15_PT156H.grib2 2026-04-12 16:54 912K
20260412T12Z_MSC_GDPS_AirTemp_IsbL-0700_LatLon0.15_PT156H.grib2 2026-04-12 16:54 945K
20260412T12Z_MSC_GDPS_AirTemp_IsbL-0750_LatLon0.15_PT156H.grib2 2026-04-12 16:54 1.0M
20260412T12Z_MSC_GDPS_AirTemp_IsbL-0800_LatLon0.15_PT156H.grib2 2026-04-12 16:54 1.1M
20260412T12Z_MSC_GDPS_AirTemp_IsbL-0850_LatLon0.15_PT156H.grib2 2026-04-12 16:54 1.1M
20260412T12Z_MSC_GDPS_AirTemp_IsbL-0875_LatLon0.15_PT156H.grib2 2026-04-12 16:54 1.1M
20260412T12Z_MSC_GDPS_AirTemp_IsbL-0900_LatLon0.15_PT156H.grib2 2026-04-12 16:54 1.1M
20260412T12Z_MSC_GDPS_AirTemp_IsbL-0925_LatLon0.15_PT156H.grib2 2026-04-12 16:54 1.1M
20260412T12Z_MSC_GDPS_AirTemp_IsbL-0950_LatLon0.15_PT156H.grib2 2026-04-12 16:54 1.2M
20260412T12Z_MSC_GDPS_AirTemp_IsbL-0970_LatLon0.15_PT156H.grib2 2026-04-12 16:54 1.2M
20260412T12Z_MSC_GDPS_AirTemp_IsbL-0985_LatLon0.15_PT156H.grib2 2026-04-12 16:54 1.1M
20260412T12Z_MSC_GDPS_AirTemp_IsbL-1000_LatLon0.15_PT156H.grib2 2026-04-12 16:54 1.1M
20260412T12Z_MSC_GDPS_AirTemp_IsbL-1015_LatLon0.15_PT156H.grib2 2026-04-12 16:54 1.1M
20260412T12Z_MSC_GDPS_Albedo_Sfc_LatLon0.15_PT156H.grib2 2026-04-12 16:54 247K
20260412T12Z_MSC_GDPS_CAPE_Sfc_LatLon0.15_PT156H.grib2 2026-04-12 16:54 3.9M
20260412T12Z_MSC_GDPS_CIN_Sfc_LatLon0.15_PT156H.grib2 2026-04-12 16:54 2.9M
20260412T12Z_MSC_GDPS_CloudWater_EAtm_LatLon0.15_PT156H.grib2 2026-04-12 16:54 531K
20260412T12Z_MSC_GDPS_ConvectivePrecip-Accum_Sfc_LatLon0.15_PT156H.grib2 2026-04-12 16:54 3.6M
20260412T12Z_MSC_GDPS_DewPointDepression_AGL-2m_LatLon0.15_PT156H.grib2 2026-04-12 16:54 751K
20260412T12Z_MSC_GDPS_DewPointDepression_IsbL-0010_LatLon0.15_PT156H.grib2 2026-04-12 16:54 3.8K
20260412T12Z_MSC_GDPS_DewPointDepression_IsbL-0020_LatLon0.15_PT156H.grib2 2026-04-12 16:54 56K
20260412T12Z_MSC_GDPS_DewPointDepression_IsbL-0030_LatLon0.15_PT156H.grib2 2026-04-12 16:54 71K
20260412T12Z_MSC_GDPS_DewPointDepression_IsbL-0050_LatLon0.15_PT156H.grib2 2026-04-12 16:54 359K
20260412T12Z_MSC_GDPS_DewPointDepression_IsbL-0100_LatLon0.15_PT156H.grib2 2026-04-12 16:54 370K
20260412T12Z_MSC_GDPS_DewPointDepression_IsbL-0150_LatLon0.15_PT156H.grib2 2026-04-12 16:54 454K
20260412T12Z_MSC_GDPS_DewPointDepression_IsbL-0175_LatLon0.15_PT156H.grib2 2026-04-12 16:54 536K
20260412T12Z_MSC_GDPS_DewPointDepression_IsbL-0200_LatLon0.15_PT156H.grib2 2026-04-12 16:54 618K
20260412T12Z_MSC_GDPS_DewPointDepression_IsbL-0225_LatLon0.15_PT156H.grib2 2026-04-12 16:54 766K
20260412T12Z_MSC_GDPS_DewPointDepression_IsbL-0250_LatLon0.15_PT156H.grib2 2026-04-12 16:54 878K
20260412T12Z_MSC_GDPS_DewPointDepression_IsbL-0275_LatLon0.15_PT156H.grib2 2026-04-12 16:54 889K
20260412T12Z_MSC_GDPS_DewPointDepression_IsbL-0300_LatLon0.15_PT156H.grib2 2026-04-12 16:54 921K
20260412T12Z_MSC_GDPS_DewPointDepression_IsbL-0350_LatLon0.15_PT156H.grib2 2026-04-12 16:54 946K
20260412T12Z_MSC_GDPS_DewPointDepression_IsbL-0400_LatLon0.15_PT156H.grib2 2026-04-12 16:54 1.0M
20260412T12Z_MSC_GDPS_DewPointDepression_IsbL-0450_LatLon0.15_PT156H.grib2 2026-04-12 16:54 1.0M
20260412T12Z_MSC_GDPS_DewPointDepression_IsbL-0500_LatLon0.15_PT156H.grib2 2026-04-12 16:54 1.0M
20260412T12Z_MSC_GDPS_DewPointDepression_IsbL-0550_LatLon0.15_PT156H.grib2 2026-04-12 16:54 1.0M
20260412T12Z_MSC_GDPS_DewPointDepression_IsbL-0600_LatLon0.15_PT156H.grib2 2026-04-12 16:54 1.1M
20260412T12Z_MSC_GDPS_DewPointDepression_IsbL-0650_LatLon0.15_PT156H.grib2 2026-04-12 16:54 1.1M
20260412T12Z_MSC_GDPS_DewPointDepression_IsbL-0700_LatLon0.15_PT156H.grib2 2026-04-12 16:54 1.1M
20260412T12Z_MSC_GDPS_DewPointDepression_IsbL-0750_LatLon0.15_PT156H.grib2 2026-04-12 16:54 1.1M
20260412T12Z_MSC_GDPS_DewPointDepression_IsbL-0800_LatLon0.15_PT156H.grib2 2026-04-12 16:54 1.2M
20260412T12Z_MSC_GDPS_DewPointDepression_IsbL-0850_LatLon0.15_PT156H.grib2 2026-04-12 16:54 1.2M
20260412T12Z_MSC_GDPS_DewPointDepression_IsbL-0875_LatLon0.15_PT156H.grib2 2026-04-12 16:54 1.1M
20260412T12Z_MSC_GDPS_DewPointDepression_IsbL-0900_LatLon0.15_PT156H.grib2 2026-04-12 16:54 1.1M
20260412T12Z_MSC_GDPS_DewPointDepression_IsbL-0925_LatLon0.15_PT156H.grib2 2026-04-12 16:54 1.0M
20260412T12Z_MSC_GDPS_DewPointDepression_IsbL-0950_LatLon0.15_PT156H.grib2 2026-04-12 16:54 1.0M
20260412T12Z_MSC_GDPS_DewPointDepression_IsbL-0970_LatLon0.15_PT156H.grib2 2026-04-12 16:54 1.0M
20260412T12Z_MSC_GDPS_DewPointDepression_IsbL-0985_LatLon0.15_PT156H.grib2 2026-04-12 16:54 1.0M
20260412T12Z_MSC_GDPS_DewPointDepression_IsbL-1000_LatLon0.15_PT156H.grib2 2026-04-12 16:54 1.0M
20260412T12Z_MSC_GDPS_DewPointDepression_IsbL-1015_LatLon0.15_PT156H.grib2 2026-04-12 16:54 914K
20260412T12Z_MSC_GDPS_DewPoint_AGL-2m_LatLon0.15_PT156H.grib2 2026-04-12 16:54 612K
20260412T12Z_MSC_GDPS_DownwardLongwaveRadiationFlux-Accum_Sfc_LatLon0.15_PT156H.grib2 2026-04-12 16:54 624K
20260412T12Z_MSC_GDPS_DownwardShortwaveRadiationFlux-Accum_NTAtm_LatLon0.15_PT156H.grib2 2026-04-12 16:54 229K
20260412T12Z_MSC_GDPS_DownwardShortwaveRadiationFlux-Accum_Sfc_LatLon0.15_PT156H.grib2 2026-04-12 16:54 1.1M
20260412T12Z_MSC_GDPS_FreezingRain-Accum12h_Sfc_LatLon0.15_PT156H.grib2 2026-04-12 16:54 124K
20260412T12Z_MSC_GDPS_FreezingRain-Accum24h_Sfc_LatLon0.15_PT156H.grib2 2026-04-12 16:54 160K
20260412T12Z_MSC_GDPS_FreezingRain-Accum3h_Sfc_LatLon0.15_PT156H.grib2 2026-04-12 16:54 58K
20260412T12Z_MSC_GDPS_FreezingRain-Accum6h_Sfc_LatLon0.15_PT156H.grib2 2026-04-12 16:54 86K
20260412T12Z_MSC_GDPS_FreezingRain-Accum_Sfc_LatLon0.15_PT156H.grib2 2026-04-12 16:54 298K
20260412T12Z_MSC_GDPS_GeopotentialHeight_IsbL-0001_LatLon0.15_PT156H.grib2 2026-04-12 16:54 513K
20260412T12Z_MSC_GDPS_GeopotentialHeight_IsbL-0005_LatLon0.15_PT156H.grib2 2026-04-12 16:54 493K
20260412T12Z_MSC_GDPS_GeopotentialHeight_IsbL-0010_LatLon0.15_PT156H.grib2 2026-04-12 16:54 427K
20260412T12Z_MSC_GDPS_GeopotentialHeight_IsbL-0020_LatLon0.15_PT156H.grib2 2026-04-12 16:54 569K
20260412T12Z_MSC_GDPS_GeopotentialHeight_IsbL-0030_LatLon0.15_PT156H.grib2 2026-04-12 16:54 575K
20260412T12Z_MSC_GDPS_GeopotentialHeight_IsbL-0050_LatLon0.15_PT156H.grib2 2026-04-12 16:54 575K
20260412T12Z_MSC_GDPS_GeopotentialHeight_IsbL-0100_LatLon0.15_PT156H.grib2 2026-04-12 16:54 614K
20260412T12Z_MSC_GDPS_GeopotentialHeight_IsbL-0150_LatLon0.15_PT156H.grib2 2026-04-12 16:54 629K
20260412T12Z_MSC_GDPS_GeopotentialHeight_IsbL-0175_LatLon0.15_PT156H.grib2 2026-04-12 16:54 632K
20260412T12Z_MSC_GDPS_GeopotentialHeight_IsbL-0200_LatLon0.15_PT156H.grib2 2026-04-12 16:54 635K
20260412T12Z_MSC_GDPS_GeopotentialHeight_IsbL-0225_LatLon0.15_PT156H.grib2 2026-04-12 16:54 629K
20260412T12Z_MSC_GDPS_GeopotentialHeight_IsbL-0250_LatLon0.15_PT156H.grib2 2026-04-12 16:54 637K
20260412T12Z_MSC_GDPS_GeopotentialHeight_IsbL-0275_LatLon0.15_PT156H.grib2 2026-04-12 16:54 634K
20260412T12Z_MSC_GDPS_GeopotentialHeight_IsbL-0300_LatLon0.15_PT156H.grib2 2026-04-12 16:54 634K
20260412T12Z_MSC_GDPS_GeopotentialHeight_IsbL-0350_LatLon0.15_PT156H.grib2 2026-04-12 16:54 623K
20260412T12Z_MSC_GDPS_GeopotentialHeight_IsbL-0400_LatLon0.15_PT156H.grib2 2026-04-12 16:54 546K
20260412T12Z_MSC_GDPS_GeopotentialHeight_IsbL-0450_LatLon0.15_PT156H.grib2 2026-04-12 16:54 535K
20260412T12Z_MSC_GDPS_GeopotentialHeight_IsbL-0500_LatLon0.15_PT156H.grib2 2026-04-12 16:54 523K
20260412T12Z_MSC_GDPS_GeopotentialHeight_IsbL-0550_LatLon0.15_PT156H.grib2 2026-04-12 16:54 685K
20260412T12Z_MSC_GDPS_GeopotentialHeight_IsbL-0600_LatLon0.15_PT156H.grib2 2026-04-12 16:54 679K
20260412T12Z_MSC_GDPS_GeopotentialHeight_IsbL-0650_LatLon0.15_PT156H.grib2 2026-04-12 16:54 677K
20260412T12Z_MSC_GDPS_GeopotentialHeight_IsbL-0700_LatLon0.15_PT156H.grib2 2026-04-12 16:54 673K
20260412T12Z_MSC_GDPS_GeopotentialHeight_IsbL-0750_LatLon0.15_PT156H.grib2 2026-04-12 16:54 682K
20260412T12Z_MSC_GDPS_GeopotentialHeight_IsbL-0800_LatLon0.15_PT156H.grib2 2026-04-12 16:54 692K
20260412T12Z_MSC_GDPS_GeopotentialHeight_IsbL-0850_LatLon0.15_PT156H.grib2 2026-04-12 16:54 698K
20260412T12Z_MSC_GDPS_GeopotentialHeight_IsbL-0875_LatLon0.15_PT156H.grib2 2026-04-12 16:54 708K
20260412T12Z_MSC_GDPS_GeopotentialHeight_IsbL-0900_LatLon0.15_PT156H.grib2 2026-04-12 16:54 712K
20260412T12Z_MSC_GDPS_GeopotentialHeight_IsbL-0925_LatLon0.15_PT156H.grib2 2026-04-12 16:54 723K
20260412T12Z_MSC_GDPS_GeopotentialHeight_IsbL-0950_LatLon0.15_PT156H.grib2 2026-04-12 16:54 730K
20260412T12Z_MSC_GDPS_GeopotentialHeight_IsbL-0970_LatLon0.15_PT156H.grib2 2026-04-12 16:54 740K
20260412T12Z_MSC_GDPS_GeopotentialHeight_IsbL-0985_LatLon0.15_PT156H.grib2 2026-04-12 16:54 756K
20260412T12Z_MSC_GDPS_GeopotentialHeight_IsbL-1000_LatLon0.15_PT156H.grib2 2026-04-12 16:54 777K
20260412T12Z_MSC_GDPS_GeopotentialHeight_IsbL-1015_LatLon0.15_PT156H.grib2 2026-04-12 16:54 801K
20260412T12Z_MSC_GDPS_Humidex_Sfc_LatLon0.15_PT156H.grib2 2026-04-12 16:54 5.3M
20260412T12Z_MSC_GDPS_IcePellets-Accum12h_Sfc_LatLon0.15_PT156H.grib2 2026-04-12 16:54 40K
20260412T12Z_MSC_GDPS_IcePellets-Accum24h_Sfc_LatLon0.15_PT156H.grib2 2026-04-12 16:54 55K
20260412T12Z_MSC_GDPS_IcePellets-Accum3h_Sfc_LatLon0.15_PT156H.grib2 2026-04-12 16:54 23K
20260412T12Z_MSC_GDPS_IcePellets-Accum6h_Sfc_LatLon0.15_PT156H.grib2 2026-04-12 16:54 25K
20260412T12Z_MSC_GDPS_IcePellets-Accum_Sfc_LatLon0.15_PT156H.grib2 2026-04-12 16:54 186K
20260412T12Z_MSC_GDPS_KIndex_Sfc_LatLon0.15_PT156H.grib2 2026-04-12 16:54 6.4M
20260412T12Z_MSC_GDPS_LatentHeatNetFlux_Sfc_LatLon0.15_PT156H.grib2 2026-04-12 16:54 632K
20260412T12Z_MSC_GDPS_LiftedIndex-MU-VT_IsbL-0500_LatLon0.15_PT156H.grib2 2026-04-12 16:54 5.3M
20260412T12Z_MSC_GDPS_NetLongwaveRadiationFlux-Accum_Sfc_LatLon0.15_PT156H.grib2 2026-04-12 16:54 1.1M
20260412T12Z_MSC_GDPS_NetShortwaveRadiationFlux-Accum_Sfc_LatLon0.15_PT156H.grib2 2026-04-12 16:54 1.1M
20260412T12Z_MSC_GDPS_O3MixingRatio_LatLon0.15_PT156H.grib2 2026-04-12 17:06 2.3M
20260412T12Z_MSC_GDPS_O3_EAtm_LatLon0.15_PT156H.grib2 2026-04-12 17:06 2.4M
20260412T12Z_MSC_GDPS_PlanetaryBoundaryLayerHeight_Sfc_LatLon0.15_PT156H.grib2 2026-04-12 16:54 2.4M
20260412T12Z_MSC_GDPS_Precip-Accum12h_Sfc_LatLon0.15_PT156H.grib2 2026-04-12 16:54 4.0M
20260412T12Z_MSC_GDPS_Precip-Accum24h_Sfc_LatLon0.15_PT156H.grib2 2026-04-12 16:54 4.5M
20260412T12Z_MSC_GDPS_Precip-Accum3h_Sfc_LatLon0.15_PT156H.grib2 2026-04-12 16:54 3.4M
20260412T12Z_MSC_GDPS_Precip-Accum6h_Sfc_LatLon0.15_PT156H.grib2 2026-04-12 16:54 3.8M
20260412T12Z_MSC_GDPS_Precip-Accum_Sfc_LatLon0.15_PT156H.grib2 2026-04-12 16:54 4.9M
20260412T12Z_MSC_GDPS_PrecipRate_Sfc_LatLon0.15_PT156H.grib2 2026-04-12 16:54 2.9M
20260412T12Z_MSC_GDPS_PrecipType-Instant_Sfc_LatLon0.15_PT156H.grib2 2026-04-12 16:54 1.5M
20260412T12Z_MSC_GDPS_Pressure_MSL_LatLon0.15_PT156H.grib2 2026-04-12 16:54 715K
20260412T12Z_MSC_GDPS_Pressure_PVU-1.5_LatLon0.15_PT156H.grib2 2026-04-12 16:54 5.8M
20260412T12Z_MSC_GDPS_Pressure_PVU-1_LatLon0.15_PT156H.grib2 2026-04-12 16:54 6.0M
20260412T12Z_MSC_GDPS_Pressure_PVU-2_LatLon0.15_PT156H.grib2 2026-04-12 16:54 5.6M
20260412T12Z_MSC_GDPS_Pressure_Sfc_LatLon0.15_PT156H.grib2 2026-04-12 16:54 1.1M
20260412T12Z_MSC_GDPS_RadiativeTemp_Sfc_LatLon0.15_PT156H.grib2 2026-04-12 16:54 664K
20260412T12Z_MSC_GDPS_Rain-Accum12h_Sfc_LatLon0.15_PT156H.grib2 2026-04-12 16:54 2.6M
20260412T12Z_MSC_GDPS_Rain-Accum24h_Sfc_LatLon0.15_PT156H.grib2 2026-04-12 16:54 3.1M
20260412T12Z_MSC_GDPS_Rain-Accum3h_Sfc_LatLon0.15_PT156H.grib2 2026-04-12 16:54 1.6M
20260412T12Z_MSC_GDPS_Rain-Accum6h_Sfc_LatLon0.15_PT156H.grib2 2026-04-12 16:54 2.3M
20260412T12Z_MSC_GDPS_Rain-Accum_Sfc_LatLon0.15_PT156H.grib2 2026-04-12 16:54 4.0M
20260412T12Z_MSC_GDPS_RelativeHumidity_AGL-2m_LatLon0.15_PT156H.grib2 2026-04-12 16:54 1.1M
20260412T12Z_MSC_GDPS_RelativeHumidity_IsbL-0010_LatLon0.15_PT156H.grib2 2026-04-12 16:54 219K
20260412T12Z_MSC_GDPS_RelativeHumidity_IsbL-0020_LatLon0.15_PT156H.grib2 2026-04-12 16:54 357K
20260412T12Z_MSC_GDPS_RelativeHumidity_IsbL-0030_LatLon0.15_PT156H.grib2 2026-04-12 16:54 372K
20260412T12Z_MSC_GDPS_RelativeHumidity_IsbL-0050_LatLon0.15_PT156H.grib2 2026-04-12 16:54 404K
20260412T12Z_MSC_GDPS_RelativeHumidity_IsbL-0100_LatLon0.15_PT156H.grib2 2026-04-12 16:54 474K
20260412T12Z_MSC_GDPS_RelativeHumidity_IsbL-0150_LatLon0.15_PT156H.grib2 2026-04-12 16:54 645K
20260412T12Z_MSC_GDPS_RelativeHumidity_IsbL-0175_LatLon0.15_PT156H.grib2 2026-04-12 16:54 781K
20260412T12Z_MSC_GDPS_RelativeHumidity_IsbL-0200_LatLon0.15_PT156H.grib2 2026-04-12 16:54 691K
20260412T12Z_MSC_GDPS_RelativeHumidity_IsbL-0225_LatLon0.15_PT156H.grib2 2026-04-12 16:54 781K
20260412T12Z_MSC_GDPS_RelativeHumidity_IsbL-0250_LatLon0.15_PT156H.grib2 2026-04-12 16:54 874K
20260412T12Z_MSC_GDPS_RelativeHumidity_IsbL-0275_LatLon0.15_PT156H.grib2 2026-04-12 16:54 897K
20260412T12Z_MSC_GDPS_RelativeHumidity_IsbL-0300_LatLon0.15_PT156H.grib2 2026-04-12 16:54 939K
20260412T12Z_MSC_GDPS_RelativeHumidity_IsbL-0350_LatLon0.15_PT156H.grib2 2026-04-12 16:54 953K
20260412T12Z_MSC_GDPS_RelativeHumidity_IsbL-0400_LatLon0.15_PT156H.grib2 2026-04-12 16:54 1.0M
20260412T12Z_MSC_GDPS_RelativeHumidity_IsbL-0450_LatLon0.15_PT156H.grib2 2026-04-12 16:54 1.0M
20260412T12Z_MSC_GDPS_RelativeHumidity_IsbL-0500_LatLon0.15_PT156H.grib2 2026-04-12 16:54 1.0M
20260412T12Z_MSC_GDPS_RelativeHumidity_IsbL-0550_LatLon0.15_PT156H.grib2 2026-04-12 16:54 1.0M
20260412T12Z_MSC_GDPS_RelativeHumidity_IsbL-0600_LatLon0.15_PT156H.grib2 2026-04-12 16:54 1.1M
20260412T12Z_MSC_GDPS_RelativeHumidity_IsbL-0650_LatLon0.15_PT156H.grib2 2026-04-12 16:54 1.1M
20260412T12Z_MSC_GDPS_RelativeHumidity_IsbL-0700_LatLon0.15_PT156H.grib2 2026-04-12 16:54 1.1M
20260412T12Z_MSC_GDPS_RelativeHumidity_IsbL-0750_LatLon0.15_PT156H.grib2 2026-04-12 16:54 1.1M
20260412T12Z_MSC_GDPS_RelativeHumidity_IsbL-0800_LatLon0.15_PT156H.grib2 2026-04-12 16:54 1.2M
20260412T12Z_MSC_GDPS_RelativeHumidity_IsbL-0850_LatLon0.15_PT156H.grib2 2026-04-12 16:54 1.3M
20260412T12Z_MSC_GDPS_RelativeHumidity_IsbL-0875_LatLon0.15_PT156H.grib2 2026-04-12 16:54 1.3M
20260412T12Z_MSC_GDPS_RelativeHumidity_IsbL-0900_LatLon0.15_PT156H.grib2 2026-04-12 16:54 1.2M
20260412T12Z_MSC_GDPS_RelativeHumidity_IsbL-0925_LatLon0.15_PT156H.grib2 2026-04-12 16:54 1.2M
20260412T12Z_MSC_GDPS_RelativeHumidity_IsbL-0950_LatLon0.15_PT156H.grib2 2026-04-12 16:54 1.2M
20260412T12Z_MSC_GDPS_RelativeHumidity_IsbL-0970_LatLon0.15_PT156H.grib2 2026-04-12 16:54 1.2M
20260412T12Z_MSC_GDPS_RelativeHumidity_IsbL-0985_LatLon0.15_PT156H.grib2 2026-04-12 16:54 1.2M
20260412T12Z_MSC_GDPS_RelativeHumidity_IsbL-1000_LatLon0.15_PT156H.grib2 2026-04-12 16:54 1.1M
20260412T12Z_MSC_GDPS_RelativeHumidity_IsbL-1015_LatLon0.15_PT156H.grib2 2026-04-12 16:54 1.1M
20260412T12Z_MSC_GDPS_RelativeVorticity_IsbL-0200_LatLon0.15_PT156H.grib2 2026-04-12 16:54 1.5M
20260412T12Z_MSC_GDPS_RelativeVorticity_IsbL-0250_LatLon0.15_PT156H.grib2 2026-04-12 16:54 1.3M
20260412T12Z_MSC_GDPS_RelativeVorticity_IsbL-0500_LatLon0.15_PT156H.grib2 2026-04-12 16:54 1.4M
20260412T12Z_MSC_GDPS_RelativeVorticity_IsbL-0700_LatLon0.15_PT156H.grib2 2026-04-12 16:54 1.6M
20260412T12Z_MSC_GDPS_RelativeVorticity_IsbL-0850_LatLon0.15_PT156H.grib2 2026-04-12 16:54 1.6M
20260412T12Z_MSC_GDPS_Runoff-Accum_Sfc_LatLon0.15_PT156H.grib2 2026-04-12 16:54 95K
20260412T12Z_MSC_GDPS_SensibleHeatNetFlux_Sfc_LatLon0.15_PT156H.grib2 2026-04-12 16:54 587K
20260412T12Z_MSC_GDPS_ShowalterIndex_IsbL-0500_LatLon0.15_PT156H.grib2 2026-04-12 16:54 6.2M
20260412T12Z_MSC_GDPS_Snow-Accum12h_Sfc_LatLon0.15_PT156H.grib2 2026-04-12 16:54 1.3M
20260412T12Z_MSC_GDPS_Snow-Accum24h_Sfc_LatLon0.15_PT156H.grib2 2026-04-12 16:54 1.5M
20260412T12Z_MSC_GDPS_Snow-Accum3h_Sfc_LatLon0.15_PT156H.grib2 2026-04-12 16:54 943K
20260412T12Z_MSC_GDPS_Snow-Accum6h_Sfc_LatLon0.15_PT156H.grib2 2026-04-12 16:54 1.3M
20260412T12Z_MSC_GDPS_Snow-Accum_Sfc_LatLon0.15_PT156H.grib2 2026-04-12 16:54 2.0M
20260412T12Z_MSC_GDPS_SnowDensity_Sfc_LatLon0.15_PT156H.grib2 2026-04-12 16:54 270K
20260412T12Z_MSC_GDPS_SnowDepth_Sfc_LatLon0.15_PT156H.grib2 2026-04-12 16:54 1.8M
20260412T12Z_MSC_GDPS_SoilTemp_DBS-0to10cm_LatLon0.15_PT156H.grib2 2026-04-12 16:54 512K
20260412T12Z_MSC_GDPS_SoilTemp_Sfc_LatLon0.15_PT156H.grib2 2026-04-12 16:54 575K
20260412T12Z_MSC_GDPS_SoilVolumetricIceContent_Sfc_LatLon0.15_PT156H.grib2 2026-04-12 16:54 223K
20260412T12Z_MSC_GDPS_SoilVolumetricWaterContent_DBS-0to10cm_LatLon0.15_PT156H.grib2 2026-04-12 16:54 552K
20260412T12Z_MSC_GDPS_SoilVolumetricWaterContent_DBS-0to1cm_LatLon0.15_PT156H.grib2 2026-04-12 16:54 653K
20260412T12Z_MSC_GDPS_SpecificHumidity_AGL-120m_LatLon0.15_PT156H.grib2 2026-04-12 16:54 1.1M
20260412T12Z_MSC_GDPS_SpecificHumidity_AGL-2m_LatLon0.15_PT156H.grib2 2026-04-12 16:54 1.2M
20260412T12Z_MSC_GDPS_SpecificHumidity_AGL-40m_LatLon0.15_PT156H.grib2 2026-04-12 16:54 1.1M
20260412T12Z_MSC_GDPS_SpecificHumidity_AGL-80m_LatLon0.15_PT156H.grib2 2026-04-12 16:54 1.1M
20260412T12Z_MSC_GDPS_SpecificHumidity_IsbL-0001_LatLon0.15_PT156H.grib2 2026-04-12 16:54 1.1M
20260412T12Z_MSC_GDPS_SpecificHumidity_IsbL-0005_LatLon0.15_PT156H.grib2 2026-04-12 16:54 1.0M
20260412T12Z_MSC_GDPS_SpecificHumidity_IsbL-0010_LatLon0.15_PT156H.grib2 2026-04-12 16:54 1.2M
20260412T12Z_MSC_GDPS_SpecificHumidity_IsbL-0020_LatLon0.15_PT156H.grib2 2026-04-12 16:54 1.2M
20260412T12Z_MSC_GDPS_SpecificHumidity_IsbL-0030_LatLon0.15_PT156H.grib2 2026-04-12 16:54 1.5M
20260412T12Z_MSC_GDPS_SpecificHumidity_IsbL-0050_LatLon0.15_PT156H.grib2 2026-04-12 16:54 1.2M
20260412T12Z_MSC_GDPS_SpecificHumidity_IsbL-0100_LatLon0.15_PT156H.grib2 2026-04-12 16:54 1.6M
20260412T12Z_MSC_GDPS_SpecificHumidity_IsbL-0150_LatLon0.15_PT156H.grib2 2026-04-12 16:54 1.3M
20260412T12Z_MSC_GDPS_SpecificHumidity_IsbL-0175_LatLon0.15_PT156H.grib2 2026-04-12 16:54 1.2M
20260412T12Z_MSC_GDPS_SpecificHumidity_IsbL-0200_LatLon0.15_PT156H.grib2 2026-04-12 16:54 1.3M
20260412T12Z_MSC_GDPS_SpecificHumidity_IsbL-0225_LatLon0.15_PT156H.grib2 2026-04-12 16:54 1.3M
20260412T12Z_MSC_GDPS_SpecificHumidity_IsbL-0250_LatLon0.15_PT156H.grib2 2026-04-12 16:54 1.4M
20260412T12Z_MSC_GDPS_SpecificHumidity_IsbL-0275_LatLon0.15_PT156H.grib2 2026-04-12 16:54 1.3M
20260412T12Z_MSC_GDPS_SpecificHumidity_IsbL-0300_LatLon0.15_PT156H.grib2 2026-04-12 16:54 1.2M
20260412T12Z_MSC_GDPS_SpecificHumidity_IsbL-0350_LatLon0.15_PT156H.grib2 2026-04-12 16:54 1.5M
20260412T12Z_MSC_GDPS_SpecificHumidity_IsbL-0400_LatLon0.15_PT156H.grib2 2026-04-12 16:54 1.4M
20260412T12Z_MSC_GDPS_SpecificHumidity_IsbL-0450_LatLon0.15_PT156H.grib2 2026-04-12 16:54 1.6M
20260412T12Z_MSC_GDPS_SpecificHumidity_IsbL-0500_LatLon0.15_PT156H.grib2 2026-04-12 16:54 1.4M
20260412T12Z_MSC_GDPS_SpecificHumidity_IsbL-0550_LatLon0.15_PT156H.grib2 2026-04-12 16:54 1.6M
20260412T12Z_MSC_GDPS_SpecificHumidity_IsbL-0600_LatLon0.15_PT156H.grib2 2026-04-12 16:54 1.7M
20260412T12Z_MSC_GDPS_SpecificHumidity_IsbL-0650_LatLon0.15_PT156H.grib2 2026-04-12 16:54 1.5M
20260412T12Z_MSC_GDPS_SpecificHumidity_IsbL-0700_LatLon0.15_PT156H.grib2 2026-04-12 16:54 1.6M
20260412T12Z_MSC_GDPS_SpecificHumidity_IsbL-0750_LatLon0.15_PT156H.grib2 2026-04-12 16:54 1.7M
20260412T12Z_MSC_GDPS_SpecificHumidity_IsbL-0800_LatLon0.15_PT156H.grib2 2026-04-12 16:54 1.8M
20260412T12Z_MSC_GDPS_SpecificHumidity_IsbL-0850_LatLon0.15_PT156H.grib2 2026-04-12 16:54 1.9M
20260412T12Z_MSC_GDPS_SpecificHumidity_IsbL-0875_LatLon0.15_PT156H.grib2 2026-04-12 16:54 1.9M
20260412T12Z_MSC_GDPS_SpecificHumidity_IsbL-0900_LatLon0.15_PT156H.grib2 2026-04-12 16:54 1.9M
20260412T12Z_MSC_GDPS_SpecificHumidity_IsbL-0925_LatLon0.15_PT156H.grib2 2026-04-12 16:54 1.9M
20260412T12Z_MSC_GDPS_SpecificHumidity_IsbL-0950_LatLon0.15_PT156H.grib2 2026-04-12 16:54 1.9M
20260412T12Z_MSC_GDPS_SpecificHumidity_IsbL-0970_LatLon0.15_PT156H.grib2 2026-04-12 16:54 1.5M
20260412T12Z_MSC_GDPS_SpecificHumidity_IsbL-0985_LatLon0.15_PT156H.grib2 2026-04-12 16:54 1.5M
20260412T12Z_MSC_GDPS_SpecificHumidity_IsbL-1000_LatLon0.15_PT156H.grib2 2026-04-12 16:54 1.5M
20260412T12Z_MSC_GDPS_SpecificHumidity_IsbL-1015_LatLon0.15_PT156H.grib2 2026-04-12 16:54 1.4M
20260412T12Z_MSC_GDPS_SpecificHumidity_Sfc_LatLon0.15_PT156H.grib2 2026-04-12 16:54 626K
20260412T12Z_MSC_GDPS_Thickness_IsbL-0850to0700_LatLon0.15_PT156H.grib2 2026-04-12 16:54 461K
20260412T12Z_MSC_GDPS_Thickness_IsbL-1000to0500_LatLon0.15_PT156H.grib2 2026-04-12 16:54 365K
20260412T12Z_MSC_GDPS_Thickness_IsbL-1000to0850_LatLon0.15_PT156H.grib2 2026-04-12 16:54 486K
20260412T12Z_MSC_GDPS_TotalCloudCover_Sfc_LatLon0.15_PT156H.grib2 2026-04-12 16:54 829K
20260412T12Z_MSC_GDPS_TotalTotalsIndex_Sfc_LatLon0.15_PT156H.grib2 2026-04-12 16:54 6.2M
20260412T12Z_MSC_GDPS_UVIndex-ClearSky_Sfc_LatLon0.15_PT156H.grib2 2026-04-12 17:06 1.0M
20260412T12Z_MSC_GDPS_UVIndex_Sfc_LatLon0.15_PT156H.grib2 2026-04-12 17:06 1.5M
20260412T12Z_MSC_GDPS_UpwardLongwaveRadiationFlux_NTAtm_LatLon0.15_PT156H.grib2 2026-04-12 16:54 1.0M
20260412T12Z_MSC_GDPS_VerticalVelocity_IsbL-0200_LatLon0.15_PT156H.grib2 2026-04-12 16:54 1.1M
20260412T12Z_MSC_GDPS_VerticalVelocity_IsbL-0250_LatLon0.15_PT156H.grib2 2026-04-12 16:54 1.0M
20260412T12Z_MSC_GDPS_VerticalVelocity_IsbL-0500_LatLon0.15_PT156H.grib2 2026-04-12 16:54 1.3M
20260412T12Z_MSC_GDPS_VerticalVelocity_IsbL-0600_LatLon0.15_PT156H.grib2 2026-04-12 16:54 1.3M
20260412T12Z_MSC_GDPS_VerticalVelocity_IsbL-0700_LatLon0.15_PT156H.grib2 2026-04-12 16:54 1.4M
20260412T12Z_MSC_GDPS_VerticalVelocity_IsbL-0850_LatLon0.15_PT156H.grib2 2026-04-12 16:54 1.3M
20260412T12Z_MSC_GDPS_WindChill_Sfc_LatLon0.15_PT156H.grib2 2026-04-12 16:54 5.4M
20260412T12Z_MSC_GDPS_WindDir_AGL-10m_LatLon0.15_PT156H.grib2 2026-04-12 16:54 1.4M
20260412T12Z_MSC_GDPS_WindDir_AGL-120m_LatLon0.15_PT156H.grib2 2026-04-12 16:54 1.4M
20260412T12Z_MSC_GDPS_WindDir_AGL-40m_LatLon0.15_PT156H.grib2 2026-04-12 16:54 1.5M
20260412T12Z_MSC_GDPS_WindDir_AGL-80m_LatLon0.15_PT156H.grib2 2026-04-12 16:54 1.4M
20260412T12Z_MSC_GDPS_WindDir_IsbL-0001_LatLon0.15_PT156H.grib2 2026-04-12 16:54 651K
20260412T12Z_MSC_GDPS_WindDir_IsbL-0005_LatLon0.15_PT156H.grib2 2026-04-12 16:54 782K
20260412T12Z_MSC_GDPS_WindDir_IsbL-0010_LatLon0.15_PT156H.grib2 2026-04-12 16:54 852K
20260412T12Z_MSC_GDPS_WindDir_IsbL-0020_LatLon0.15_PT156H.grib2 2026-04-12 16:54 911K
20260412T12Z_MSC_GDPS_WindDir_IsbL-0030_LatLon0.15_PT156H.grib2 2026-04-12 16:54 885K
20260412T12Z_MSC_GDPS_WindDir_IsbL-0050_LatLon0.15_PT156H.grib2 2026-04-12 16:54 927K
20260412T12Z_MSC_GDPS_WindDir_IsbL-0100_LatLon0.15_PT156H.grib2 2026-04-12 16:54 1.0M
20260412T12Z_MSC_GDPS_WindDir_IsbL-0150_LatLon0.15_PT156H.grib2 2026-04-12 16:54 1.0M
20260412T12Z_MSC_GDPS_WindDir_IsbL-0175_LatLon0.15_PT156H.grib2 2026-04-12 16:54 1.0M
20260412T12Z_MSC_GDPS_WindDir_IsbL-0200_LatLon0.15_PT156H.grib2 2026-04-12 16:54 1.1M
20260412T12Z_MSC_GDPS_WindDir_IsbL-0225_LatLon0.15_PT156H.grib2 2026-04-12 16:54 1.1M
20260412T12Z_MSC_GDPS_WindDir_IsbL-0250_LatLon0.15_PT156H.grib2 2026-04-12 16:54 1.1M
20260412T12Z_MSC_GDPS_WindDir_IsbL-0275_LatLon0.15_PT156H.grib2 2026-04-12 16:54 1.2M
20260412T12Z_MSC_GDPS_WindDir_IsbL-0300_LatLon0.15_PT156H.grib2 2026-04-12 16:54 1.2M
20260412T12Z_MSC_GDPS_WindDir_IsbL-0350_LatLon0.15_PT156H.grib2 2026-04-12 16:54 1.2M
20260412T12Z_MSC_GDPS_WindDir_IsbL-0400_LatLon0.15_PT156H.grib2 2026-04-12 16:54 1.3M
20260412T12Z_MSC_GDPS_WindDir_IsbL-0450_LatLon0.15_PT156H.grib2 2026-04-12 16:54 1.3M
20260412T12Z_MSC_GDPS_WindDir_IsbL-0500_LatLon0.15_PT156H.grib2 2026-04-12 16:54 1.3M
20260412T12Z_MSC_GDPS_WindDir_IsbL-0550_LatLon0.15_PT156H.grib2 2026-04-12 16:54 1.4M
20260412T12Z_MSC_GDPS_WindDir_IsbL-0600_LatLon0.15_PT156H.grib2 2026-04-12 16:54 1.5M
20260412T12Z_MSC_GDPS_WindDir_IsbL-0650_LatLon0.15_PT156H.grib2 2026-04-12 16:54 1.5M
20260412T12Z_MSC_GDPS_WindDir_IsbL-0700_LatLon0.15_PT156H.grib2 2026-04-12 16:54 1.6M
20260412T12Z_MSC_GDPS_WindDir_IsbL-0750_LatLon0.15_PT156H.grib2 2026-04-12 16:54 1.7M
20260412T12Z_MSC_GDPS_WindDir_IsbL-0800_LatLon0.15_PT156H.grib2 2026-04-12 16:54 1.9M
20260412T12Z_MSC_GDPS_WindDir_IsbL-0850_LatLon0.15_PT156H.grib2 2026-04-12 16:54 2.0M
20260412T12Z_MSC_GDPS_WindDir_IsbL-0875_LatLon0.15_PT156H.grib2 2026-04-12 16:54 2.0M
20260412T12Z_MSC_GDPS_WindDir_IsbL-0900_LatLon0.15_PT156H.grib2 2026-04-12 16:54 2.0M
20260412T12Z_MSC_GDPS_WindDir_IsbL-0925_LatLon0.15_PT156H.grib2 2026-04-12 16:54 2.1M
20260412T12Z_MSC_GDPS_WindDir_IsbL-0950_LatLon0.15_PT156H.grib2 2026-04-12 16:54 2.1M
20260412T12Z_MSC_GDPS_WindDir_IsbL-0970_LatLon0.15_PT156H.grib2 2026-04-12 16:54 2.1M
20260412T12Z_MSC_GDPS_WindDir_IsbL-0985_LatLon0.15_PT156H.grib2 2026-04-12 16:54 2.1M
20260412T12Z_MSC_GDPS_WindDir_IsbL-1000_LatLon0.15_PT156H.grib2 2026-04-12 16:54 2.1M
20260412T12Z_MSC_GDPS_WindDir_IsbL-1015_LatLon0.15_PT156H.grib2 2026-04-12 16:54 2.1M
20260412T12Z_MSC_GDPS_WindGust-Max_AGL-10m_LatLon0.15_PT156H.grib2 2026-04-12 16:54 2.2M
20260412T12Z_MSC_GDPS_WindGust-Min_AGL-10m_LatLon0.15_PT156H.grib2 2026-04-12 16:54 2.1M
20260412T12Z_MSC_GDPS_WindGust_AGL-10m_LatLon0.15_PT156H.grib2 2026-04-12 16:54 2.1M
20260412T12Z_MSC_GDPS_WindSpeed_AGL-10m_LatLon0.15_PT156H.grib2 2026-04-12 16:54 1.1M
20260412T12Z_MSC_GDPS_WindSpeed_AGL-120m_LatLon0.15_PT156H.grib2 2026-04-12 16:54 1.3M
20260412T12Z_MSC_GDPS_WindSpeed_AGL-40m_LatLon0.15_PT156H.grib2 2026-04-12 16:54 1.3M
20260412T12Z_MSC_GDPS_WindSpeed_AGL-80m_LatLon0.15_PT156H.grib2 2026-04-12 16:54 1.3M
20260412T12Z_MSC_GDPS_WindSpeed_IsbL-0001_LatLon0.15_PT156H.grib2 2026-04-12 16:54 628K
20260412T12Z_MSC_GDPS_WindSpeed_IsbL-0005_LatLon0.15_PT156H.grib2 2026-04-12 16:54 597K
20260412T12Z_MSC_GDPS_WindSpeed_IsbL-0010_LatLon0.15_PT156H.grib2 2026-04-12 16:54 617K
20260412T12Z_MSC_GDPS_WindSpeed_IsbL-0020_LatLon0.15_PT156H.grib2 2026-04-12 16:54 660K
20260412T12Z_MSC_GDPS_WindSpeed_IsbL-0030_LatLon0.15_PT156H.grib2 2026-04-12 16:54 848K
20260412T12Z_MSC_GDPS_WindSpeed_IsbL-0050_LatLon0.15_PT156H.grib2 2026-04-12 16:54 1.0M
20260412T12Z_MSC_GDPS_WindSpeed_IsbL-0100_LatLon0.15_PT156H.grib2 2026-04-12 16:54 1.1M
20260412T12Z_MSC_GDPS_WindSpeed_IsbL-0150_LatLon0.15_PT156H.grib2 2026-04-12 16:54 1.0M
20260412T12Z_MSC_GDPS_WindSpeed_IsbL-0175_LatLon0.15_PT156H.grib2 2026-04-12 16:54 1.0M
20260412T12Z_MSC_GDPS_WindSpeed_IsbL-0200_LatLon0.15_PT156H.grib2 2026-04-12 16:54 1.0M
20260412T12Z_MSC_GDPS_WindSpeed_IsbL-0225_LatLon0.15_PT156H.grib2 2026-04-12 16:54 1.1M
20260412T12Z_MSC_GDPS_WindSpeed_IsbL-0250_LatLon0.15_PT156H.grib2 2026-04-12 16:54 1.1M
20260412T12Z_MSC_GDPS_WindSpeed_IsbL-0275_LatLon0.15_PT156H.grib2 2026-04-12 16:54 1.1M
20260412T12Z_MSC_GDPS_WindSpeed_IsbL-0300_LatLon0.15_PT156H.grib2 2026-04-12 16:54 1.1M
20260412T12Z_MSC_GDPS_WindSpeed_IsbL-0350_LatLon0.15_PT156H.grib2 2026-04-12 16:54 1.1M
20260412T12Z_MSC_GDPS_WindSpeed_IsbL-0400_LatLon0.15_PT156H.grib2 2026-04-12 16:54 1.1M
20260412T12Z_MSC_GDPS_WindSpeed_IsbL-0450_LatLon0.15_PT156H.grib2 2026-04-12 16:54 1.1M
20260412T12Z_MSC_GDPS_WindSpeed_IsbL-0500_LatLon0.15_PT156H.grib2 2026-04-12 16:54 1.1M
20260412T12Z_MSC_GDPS_WindSpeed_IsbL-0550_LatLon0.15_PT156H.grib2 2026-04-12 16:54 1.1M
20260412T12Z_MSC_GDPS_WindSpeed_IsbL-0600_LatLon0.15_PT156H.grib2 2026-04-12 16:54 1.1M
20260412T12Z_MSC_GDPS_WindSpeed_IsbL-0650_LatLon0.15_PT156H.grib2 2026-04-12 16:54 1.4M
20260412T12Z_MSC_GDPS_WindSpeed_IsbL-0700_LatLon0.15_PT156H.grib2 2026-04-12 16:54 1.5M
20260412T12Z_MSC_GDPS_WindSpeed_IsbL-0750_LatLon0.15_PT156H.grib2 2026-04-12 16:54 1.5M
20260412T12Z_MSC_GDPS_WindSpeed_IsbL-0800_LatLon0.15_PT156H.grib2 2026-04-12 16:54 1.6M
20260412T12Z_MSC_GDPS_WindSpeed_IsbL-0850_LatLon0.15_PT156H.grib2 2026-04-12 16:54 1.7M
20260412T12Z_MSC_GDPS_WindSpeed_IsbL-0875_LatLon0.15_PT156H.grib2 2026-04-12 16:54 1.8M
20260412T12Z_MSC_GDPS_WindSpeed_IsbL-0900_LatLon0.15_PT156H.grib2 2026-04-12 16:54 1.8M
20260412T12Z_MSC_GDPS_WindSpeed_IsbL-0925_LatLon0.15_PT156H.grib2 2026-04-12 16:54 1.8M
20260412T12Z_MSC_GDPS_WindSpeed_IsbL-0950_LatLon0.15_PT156H.grib2 2026-04-12 16:54 1.8M
20260412T12Z_MSC_GDPS_WindSpeed_IsbL-0970_LatLon0.15_PT156H.grib2 2026-04-12 16:54 1.9M
20260412T12Z_MSC_GDPS_WindSpeed_IsbL-0985_LatLon0.15_PT156H.grib2 2026-04-12 16:54 1.9M
20260412T12Z_MSC_GDPS_WindSpeed_IsbL-1000_LatLon0.15_PT156H.grib2 2026-04-12 16:54 1.9M
20260412T12Z_MSC_GDPS_WindSpeed_IsbL-1015_LatLon0.15_PT156H.grib2 2026-04-12 16:54 1.8M
20260412T12Z_MSC_GDPS_WindU_AGL-10m_LatLon0.15_PT156H.grib2 2026-04-12 16:54 1.3M
20260412T12Z_MSC_GDPS_WindU_AGL-120m_LatLon0.15_PT156H.grib2 2026-04-12 16:54 1.0M
20260412T12Z_MSC_GDPS_WindU_AGL-40m_LatLon0.15_PT156H.grib2 2026-04-12 16:54 972K
20260412T12Z_MSC_GDPS_WindU_AGL-80m_LatLon0.15_PT156H.grib2 2026-04-12 16:54 1.0M
20260412T12Z_MSC_GDPS_WindU_IsbL-0001_LatLon0.15_PT156H.grib2 2026-04-12 16:54 634K
20260412T12Z_MSC_GDPS_WindU_IsbL-0005_LatLon0.15_PT156H.grib2 2026-04-12 16:54 678K
20260412T12Z_MSC_GDPS_WindU_IsbL-0010_LatLon0.15_PT156H.grib2 2026-04-12 16:54 690K
20260412T12Z_MSC_GDPS_WindU_IsbL-0020_LatLon0.15_PT156H.grib2 2026-04-12 16:54 728K
20260412T12Z_MSC_GDPS_WindU_IsbL-0030_LatLon0.15_PT156H.grib2 2026-04-12 16:54 728K
20260412T12Z_MSC_GDPS_WindU_IsbL-0050_LatLon0.15_PT156H.grib2 2026-04-12 16:54 696K
20260412T12Z_MSC_GDPS_WindU_IsbL-0100_LatLon0.15_PT156H.grib2 2026-04-12 16:54 918K
20260412T12Z_MSC_GDPS_WindU_IsbL-0150_LatLon0.15_PT156H.grib2 2026-04-12 16:54 1.0M
20260412T12Z_MSC_GDPS_WindU_IsbL-0175_LatLon0.15_PT156H.grib2 2026-04-12 16:54 809K
20260412T12Z_MSC_GDPS_WindU_IsbL-0200_LatLon0.15_PT156H.grib2 2026-04-12 16:54 1.0M
20260412T12Z_MSC_GDPS_WindU_IsbL-0225_LatLon0.15_PT156H.grib2 2026-04-12 16:54 1.1M
20260412T12Z_MSC_GDPS_WindU_IsbL-0250_LatLon0.15_PT156H.grib2 2026-04-12 16:54 1.1M
20260412T12Z_MSC_GDPS_WindU_IsbL-0275_LatLon0.15_PT156H.grib2 2026-04-12 16:54 877K
20260412T12Z_MSC_GDPS_WindU_IsbL-0300_LatLon0.15_PT156H.grib2 2026-04-12 16:54 867K
20260412T12Z_MSC_GDPS_WindU_IsbL-0350_LatLon0.15_PT156H.grib2 2026-04-12 16:54 1.1M
20260412T12Z_MSC_GDPS_WindU_IsbL-0400_LatLon0.15_PT156H.grib2 2026-04-12 16:54 1.1M
20260412T12Z_MSC_GDPS_WindU_IsbL-0450_LatLon0.15_PT156H.grib2 2026-04-12 16:54 1.1M
20260412T12Z_MSC_GDPS_WindU_IsbL-0500_LatLon0.15_PT156H.grib2 2026-04-12 16:54 1.1M
20260412T12Z_MSC_GDPS_WindU_IsbL-0550_LatLon0.15_PT156H.grib2 2026-04-12 16:54 1.1M
20260412T12Z_MSC_GDPS_WindU_IsbL-0600_LatLon0.15_PT156H.grib2 2026-04-12 16:54 1.1M
20260412T12Z_MSC_GDPS_WindU_IsbL-0650_LatLon0.15_PT156H.grib2 2026-04-12 16:54 1.2M
20260412T12Z_MSC_GDPS_WindU_IsbL-0700_LatLon0.15_PT156H.grib2 2026-04-12 16:54 1.2M
20260412T12Z_MSC_GDPS_WindU_IsbL-0750_LatLon0.15_PT156H.grib2 2026-04-12 16:54 1.3M
20260412T12Z_MSC_GDPS_WindU_IsbL-0800_LatLon0.15_PT156H.grib2 2026-04-12 16:54 1.3M
20260412T12Z_MSC_GDPS_WindU_IsbL-0850_LatLon0.15_PT156H.grib2 2026-04-12 16:54 1.4M
20260412T12Z_MSC_GDPS_WindU_IsbL-0875_LatLon0.15_PT156H.grib2 2026-04-12 16:54 1.4M
20260412T12Z_MSC_GDPS_WindU_IsbL-0900_LatLon0.15_PT156H.grib2 2026-04-12 16:54 1.5M
20260412T12Z_MSC_GDPS_WindU_IsbL-0925_LatLon0.15_PT156H.grib2 2026-04-12 16:54 1.5M
20260412T12Z_MSC_GDPS_WindU_IsbL-0950_LatLon0.15_PT156H.grib2 2026-04-12 16:54 1.4M
20260412T12Z_MSC_GDPS_WindU_IsbL-0970_LatLon0.15_PT156H.grib2 2026-04-12 16:54 1.4M
20260412T12Z_MSC_GDPS_WindU_IsbL-0985_LatLon0.15_PT156H.grib2 2026-04-12 16:54 1.4M
20260412T12Z_MSC_GDPS_WindU_IsbL-1000_LatLon0.15_PT156H.grib2 2026-04-12 16:54 1.4M
20260412T12Z_MSC_GDPS_WindU_IsbL-1015_LatLon0.15_PT156H.grib2 2026-04-12 16:54 1.3M
20260412T12Z_MSC_GDPS_WindV_AGL-10m_LatLon0.15_PT156H.grib2 2026-04-12 16:54 1.6M
20260412T12Z_MSC_GDPS_WindV_AGL-120m_LatLon0.15_PT156H.grib2 2026-04-12 16:54 1.0M
20260412T12Z_MSC_GDPS_WindV_AGL-40m_LatLon0.15_PT156H.grib2 2026-04-12 16:54 1.0M
20260412T12Z_MSC_GDPS_WindV_AGL-80m_LatLon0.15_PT156H.grib2 2026-04-12 16:54 1.0M
20260412T12Z_MSC_GDPS_WindV_IsbL-0001_LatLon0.15_PT156H.grib2 2026-04-12 16:54 757K
20260412T12Z_MSC_GDPS_WindV_IsbL-0005_LatLon0.15_PT156H.grib2 2026-04-12 16:54 838K
20260412T12Z_MSC_GDPS_WindV_IsbL-0010_LatLon0.15_PT156H.grib2 2026-04-12 16:54 792K
20260412T12Z_MSC_GDPS_WindV_IsbL-0020_LatLon0.15_PT156H.grib2 2026-04-12 16:54 844K
20260412T12Z_MSC_GDPS_WindV_IsbL-0030_LatLon0.15_PT156H.grib2 2026-04-12 16:54 844K
20260412T12Z_MSC_GDPS_WindV_IsbL-0050_LatLon0.15_PT156H.grib2 2026-04-12 16:54 897K
20260412T12Z_MSC_GDPS_WindV_IsbL-0100_LatLon0.15_PT156H.grib2 2026-04-12 16:54 1.0M
20260412T12Z_MSC_GDPS_WindV_IsbL-0150_LatLon0.15_PT156H.grib2 2026-04-12 16:54 973K
20260412T12Z_MSC_GDPS_WindV_IsbL-0175_LatLon0.15_PT156H.grib2 2026-04-12 16:54 1.0M
20260412T12Z_MSC_GDPS_WindV_IsbL-0200_LatLon0.15_PT156H.grib2 2026-04-12 16:54 834K
20260412T12Z_MSC_GDPS_WindV_IsbL-0225_LatLon0.15_PT156H.grib2 2026-04-12 16:54 842K
20260412T12Z_MSC_GDPS_WindV_IsbL-0250_LatLon0.15_PT156H.grib2 2026-04-12 16:54 842K
20260412T12Z_MSC_GDPS_WindV_IsbL-0275_LatLon0.15_PT156H.grib2 2026-04-12 16:54 868K
20260412T12Z_MSC_GDPS_WindV_IsbL-0300_LatLon0.15_PT156H.grib2 2026-04-12 16:54 857K
20260412T12Z_MSC_GDPS_WindV_IsbL-0350_LatLon0.15_PT156H.grib2 2026-04-12 16:54 869K
20260412T12Z_MSC_GDPS_WindV_IsbL-0400_LatLon0.15_PT156H.grib2 2026-04-12 16:54 868K
20260412T12Z_MSC_GDPS_WindV_IsbL-0450_LatLon0.15_PT156H.grib2 2026-04-12 16:54 869K
20260412T12Z_MSC_GDPS_WindV_IsbL-0500_LatLon0.15_PT156H.grib2 2026-04-12 16:54 1.1M
20260412T12Z_MSC_GDPS_WindV_IsbL-0550_LatLon0.15_PT156H.grib2 2026-04-12 16:54 1.1M
20260412T12Z_MSC_GDPS_WindV_IsbL-0600_LatLon0.15_PT156H.grib2 2026-04-12 16:54 1.1M
20260412T12Z_MSC_GDPS_WindV_IsbL-0650_LatLon0.15_PT156H.grib2 2026-04-12 16:54 1.1M
20260412T12Z_MSC_GDPS_WindV_IsbL-0700_LatLon0.15_PT156H.grib2 2026-04-12 16:54 1.2M
20260412T12Z_MSC_GDPS_WindV_IsbL-0750_LatLon0.15_PT156H.grib2 2026-04-12 16:54 1.2M
20260412T12Z_MSC_GDPS_WindV_IsbL-0800_LatLon0.15_PT156H.grib2 2026-04-12 16:54 1.3M
20260412T12Z_MSC_GDPS_WindV_IsbL-0850_LatLon0.15_PT156H.grib2 2026-04-12 16:54 1.4M
20260412T12Z_MSC_GDPS_WindV_IsbL-0875_LatLon0.15_PT156H.grib2 2026-04-12 16:54 1.4M
20260412T12Z_MSC_GDPS_WindV_IsbL-0900_LatLon0.15_PT156H.grib2 2026-04-12 16:54 1.5M
20260412T12Z_MSC_GDPS_WindV_IsbL-0925_LatLon0.15_PT156H.grib2 2026-04-12 16:54 1.5M
20260412T12Z_MSC_GDPS_WindV_IsbL-0950_LatLon0.15_PT156H.grib2 2026-04-12 16:54 1.4M
20260412T12Z_MSC_GDPS_WindV_IsbL-0970_LatLon0.15_PT156H.grib2 2026-04-12 16:54 1.4M
20260412T12Z_MSC_GDPS_WindV_IsbL-0985_LatLon0.15_PT156H.grib2 2026-04-12 16:54 1.4M
20260412T12Z_MSC_GDPS_WindV_IsbL-1000_LatLon0.15_PT156H.grib2 2026-04-12 16:54 1.7M
20260412T12Z_MSC_GDPS_WindV_IsbL-1015_LatLon0.15_PT156H.grib2 2026-04-12 16:54 1.7M